www.pogodaiklimat.ru

Погода и климат >> Архив погоды >> Норвегия >> Хаммерфест аэропорт


ПОГОДА в Хаммерфест аэропорту

  • Прогноз погоды в Хаммерфест аэропорту
  • Монитор погоды в Хаммерфест аэропорту

АРХИВ ПОГОДЫ в Хаммерфест аэропорту

Время (UTC), дата Ветер
(напр.,м/с)
 
Видим.   Явления Облачность Т
(С)
Тd
(С)
f
(%)
Тe
(С)
Тes
(С)
Комфортность P
(гПа)
Po
(гПа)
Тmin
(С)
Tmax
(С)
R
(мм)
R24
(мм)
S
(см)
07 12.08 СВ 5
{6}
н/о н/о +10.5 +10.0 97 +7 +7 1005.2 995.6
08 12.08 СВ 3
{6}
н/о н/о +10.5 +9.9 96 +8 +8 1005.4 995.8
09 12.08 Ю 1
{5}
н/о н/о +12.1 +10.5 90 +12 +12 1005.5 995.9
10 12.08 В 2
{4}
н/о н/о +11.5 +10.3 92 +10 +10 1005.9 996.3
11 12.08 СВ 6
{8}
н/о н/о +10.4 +9.5 94 +7 +7 1006.4 996.8
12 12.08 СВ 6
{8}
н/о н/о +9.8 +9.0 95 +6 +6 1006.3 996.7
13 12.08 СВ 7
{9}
н/о н/о +10.5 +9.3 92 +7 +7 1006.4 996.8
14 12.08 СВ 8
{10}
н/о н/о +10.2 +8.5 89 +6 +6 1006.3 996.7
15 12.08 СВ 9
{11}
н/о н/о +9.4 +8.2 92 +5 +5 1006.5 996.9
16 12.08 СВ 8
{10}
н/о н/о +8.9 +8.1 95 +4 +4 1006.6 996.9
17 12.08 СВ 8
{10}
н/о н/о +9.3 +8.2 93 +5 +5 1006.7 997.1
18 12.08 СВ 9
{11}
н/о н/о +8.5 +7.6 94 +4 +4 1006.8 997.2 +8.5 +12.3
19 12.08 СВ 9
{12}
н/о н/о +8.2 +7.3 94 +3 +3 1007.0 997.3
20 12.08 СВ 9
{10}
н/о н/о +8.5 +7.6 94 +4 +4 1007.1 997.5
21 12.08 СВ 8
{10}
н/о н/о +8.1 +7.2 94 +3 +3 1007.3 997.6
22 12.08 СВ 8
{10}
н/о н/о +8.1 +7.5 96 +3 +3 1007.6 997.9
23 12.08 СВ 8
{11}
н/о н/о +7.8 +7.4 97 +3 +3 1007.7 998.0
00 13.08 СВ 8
{12}
н/о н/о +7.7 +7.3 97 +3 +3 1007.9 998.2
01 13.08 СВ 9
{11}
н/о н/о +7.3 +7.0 98 +2 +2 1008.1 998.4
02 13.08 СВ 9
{12}
н/о н/о +7.2 +6.8 97 +2 +2 1008.1 998.3
03 13.08 СВ 7
{11}
н/о н/о +7.3 +6.7 96 +2 +2 1008.1 998.4
04 13.08 СВ 6
{10}
н/о н/о +7.3 +6.7 96 +3 +3 1008.3 998.6
05 13.08 СВ 9
{12}
н/о н/о +7.2 +6.5 95 +2 +2 1008.2 998.5
06 13.08 СВ 8
{12}
н/о н/о +7.4 +6.5 94 +2 +2 1008.4 998.6 +7.2 +8.7
07 13.08 СВ 8
{11}
н/о н/о +7.5 +6.4 93 +2 +2 1008.4 998.6
08 13.08 СВ 6
{11}
н/о н/о +8.1 +6.7 91 +4 +4 1008.5 998.8
09 13.08 СВ 9
{12}
н/о н/о +8.2 +6.7 90 +3 +3 1008.4 998.7
10 13.08 СВ 8
{11}
н/о н/о +8.2 +6.8 91 +3 +3 1008.4 998.7
11 13.08 СВ 8
{11}
н/о н/о +8.4 +6.9 90 +4 +4 1008.3 998.6
12 13.08 СВ 8
{12}
н/о н/о +8.4 +6.7 89 +4 +4 1008.4 998.7
13 13.08 СВ 9
{11}
н/о н/о +8.8 +6.9 88 +4 +4 1008.1 998.4
14 13.08 СВ 8
{11}
н/о н/о +9.0 +7.0 87 +5 +5 1007.8 998.2
15 13.08 СВ 8
{10}
н/о н/о +8.8 +6.8 87 +4 +4 1007.6 997.9
16 13.08 СВ 7
{9}
н/о н/о +8.8 +6.9 88 +5 +5 1007.3 997.6
17 13.08 СВ 7
{9}
н/о н/о +8.9 +6.7 86 +5 +5 1007.2 997.6
18 13.08 СВ 6
{11}
н/о н/о +8.8 +6.9 88 +5 +5 1006.9 997.2 +7.3 +9.3
19 13.08 СВ 6
{8}
н/о н/о +8.5 +6.8 89 +4 +4 1006.7 997.0
20 13.08 СВ 6
{8}
н/о н/о +8.2 +7.0 92 +4 +4 1006.4 996.7
21 13.08 В 6
{7}
н/о н/о +8.1 +7.4 95 +4 +4 1006.2 996.6
22 13.08 В 5
{7}
н/о н/о +8.3 +7.6 95 +4 +4 1005.9 996.3 0.3
23 13.08 В 5
{6}
н/о н/о +8.2 +7.5 95 +4 +4 1005.5 995.8
00 14.08 В 5
{8}
н/о н/о +8.5 +7.6 94 +5 +5 1005.1 995.4
01 14.08 СВ 4
{6}
н/о н/о +8.6 +7.5 93 +5 +5 1004.9 995.2
02 14.08 СВ 4
{5}
н/о н/о +8.7 +7.6 93 +5 +5 1004.8 995.1
03 14.08 СВ 4
{6}
н/о н/о +8.7 +7.8 94 +5 +5 1004.6 995.0
04 14.08 СВ 4
{6}
н/о н/о +8.9 +7.8 93 +6 +6 1004.5 994.8
05 14.08 СВ 5
{6}
н/о н/о +9.3 +7.9 91 +6 +6 1004.4 994.8
06 14.08 СВ 5
{10}
н/о н/о +9.1 +7.9 92 +6 +6 1004.5 994.8 +8.1 +9.3 0.3
07 14.08 СВ 5
{6}
н/о н/о +9.1 +7.9 92 +6 +6 1004.6 995.0
08 14.08 СВ 5
{7}
н/о н/о +9.7 +8.5 92 +6 +6 1004.4 994.8
09 14.08 СВ 5
{9}
н/о н/о +9.8 +8.7 93 +6 +6 1004.5 994.9
10 14.08 СВ 5
{8}
н/о н/о +9.6 +8.5 93 +6 +6 1004.7 995.1
11 14.08 СВ 6
{8}
н/о н/о +9.2 +8.3 94 +5 +5 1004.9 995.3
12 14.08 СВ 7
{11}
н/о н/о +8.7 +8.0 95 +4 +4 1005.1 995.5
13 14.08 СВ 8
{10}
н/о н/о +8.6 +7.9 95 +4 +4 1005.3 995.6
14 14.08 СВ 8
{10}
н/о н/о +8.4 +7.8 96 +4 +4 1005.3 995.7
15 14.08 СВ 8
{11}
н/о н/о +8.4 +8.0 97 +4 +4 1005.2 995.6
16 14.08 СВ 7
{9}
н/о н/о +8.5 +7.8 95 +4 +4 1005.4 995.7
17 14.08 СВ 8
{10}
н/о н/о +8.0 +7.4 96 +3 +3 1005.6 995.9
18 14.08 СВ 8
{11}
н/о н/о +7.4 +7.0 97 +2 +2 1005.7 996.0 +7.3 +10.1
19 14.08 СВ 8
{10}
н/о н/о +7.6 +7.0 96 +3 +3 1005.7 996.0
20 14.08 СВ 7
{9}
н/о н/о +7.5 +6.8 95 +3 +3 1005.6 996.0
21 14.08 СВ 8
{9}
н/о н/о +7.5 +6.6 94 +2 +2 1005.6 995.9
22 14.08 СВ 7
{9}
н/о н/о +7.6 +6.7 94 +3 +3 1005.4 995.7
23 14.08 СВ 7
{8}
н/о н/о +7.6 +6.7 94 +3 +3 1005.2 995.5
00 15.08 СВ 6
{10}
н/о н/о +7.7 +6.6 93 +3 +3 1005.1 995.4
01 15.08 СВ 6
{7}
н/о н/о +7.7 +6.6 93 +3 +3 1004.9 995.2
02 15.08 СВ 4
{7}
н/о н/о +7.8 +7.1 95 +4 +4 1004.5 994.8
03 15.08 СВ 5
{6}
н/о н/о +7.9 +7.2 95 +4 +4 1004.3 994.7
04 15.08 СВ 4
{5}
н/о н/о +8.3 +7.7 96 +5 +5 1004.0 994.4
05 15.08 В 4
{5}
н/о н/о +8.6 +8.0 96 +5 +5 1004.0 994.4
06 15.08 СВ 4
{7}
н/о н/о +8.7 +8.1 96 +5 +5 1004.1 994.4 +7.4 +8.8
07 15.08 СВ 5
{6}
н/о н/о +8.8 +8.1 95 +5 +5 1004.1 994.4
08 15.08 В 3
{6}
н/о н/о +9.5 +8.3 92 +7 +7 1003.9 994.3
09 15.08 З 3
{5}
н/о н/о +10.1 +9.0 93 +8 +8 1003.9 994.3
10 15.08 В 2
{7}
н/о н/о +9.1 +8.8 98 +7 +7 1004.1 994.5
11 15.08 СВ 2
{4}
н/о н/о +9.3 +9.0 98 +7 +7 1004.2 994.6
12 15.08 СВ 2
{7}
н/о н/о +9.5 +9.1 97 +8 +8 1004.4 994.8
13 15.08 С 6
{9}
н/о н/о +9.3 +8.1 92 +5 +5 1004.6 995.0
14 15.08 С 5
{9}
н/о н/о +9.6 +7.9 89 +6 +6 1005.0 995.4
15 15.08 СВ 3
{7}
н/о н/о +8.5 +7.8 95 +6 +6 1005.5 995.9
16 15.08 СВ 5
{6}
н/о н/о +7.6 +7.3 98 +4 +4 1006.0 996.3
17 15.08 СВ 3
{5}
н/о н/о +7.4 +7.1 98 +4 +4 1006.5 996.8
18 15.08 СВ 2
{9}
н/о н/о +7.3 +7.0 98 +5 +5 1006.6 996.9 +7.3 +10.3
19 15.08 СВ 3
{4}
н/о н/о +6.9 +6.6 98 +4 +4 1006.9 997.1
20 15.08 СВ 4
{5}
н/о н/о +6.5 +6.2 98 +3 +3 1007.1 997.4
21 15.08
{6}
н/о н/о +6.4 +5.7 95 1007.2 997.4
22 15.08 СВ 3
{7}
н/о н/о +6.1 +5.5 96 +3 +3 1007.4 997.7
23 15.08 В 2
{4}
н/о н/о +5.6 +5.2 97 +3 +3 1007.6 997.8
00 16.08 СВ 3
{7}
н/о н/о +5.5 +5.1 97 +2 +2 1007.8 998.0
01 16.08 СВ 3
{4}
н/о н/о +5.0 +4.6 97 +1 +1 1007.7 997.9
02 16.08 СВ 3
{5}
н/о н/о +5.3 +5.0 98 +2 +2 1007.8 998.0
03 16.08 СВ 4
{5}
н/о н/о +5.6 +4.9 95 +1 +1 1007.7 997.9
04 16.08 СВ 4
{5}
н/о н/о +6.0 +5.0 93 +2 +2 1007.7 998.0
05 16.08 СВ 4
{5}
н/о н/о +5.8 +5.2 96 +2 +2 1007.9 998.1
06 16.08 СВ 4
{6}
н/о н/о +6.2 +5.6 96 +2 +2 1007.7 998.0 +4.9 +7.3
07 16.08 СВ 3
{5}
н/о н/о +6.5 +5.5 93 +3 +3 1007.6 997.9
08 16.08 В 2
{4}
н/о н/о +7.9 +6.0 88 +6 +6 1007.3 997.6
09 16.08 СВ 2
{8}
н/о н/о +8.2 +6.3 88 +6 +6 1007.1 997.4
10 16.08 З 2
{5}
н/о н/о +9.2 +6.5 83 +8 +8 1007.0 997.3
11 16.08 З 2
{4}
н/о н/о +9.0 +5.9 81 +7 +7 1006.7 997.0
12 16.08 ЮЗ 1
{8}
н/о н/о +9.5 +6.6 82 +9 +9 1006.4 996.7
13 16.08 Ю 1
{2}
н/о н/о +10.2 +7.6 84 +10 +10 1005.9 996.3
14 16.08 В 3
{4}
н/о н/о +10.8 +8.0 83 +9 +9 1005.6 996.0
15 16.08 СВ 5
{7}
н/о н/о +9.3 +7.6 89 +6 +6 1005.1 995.5
16 16.08 Ю 1
{6}
н/о н/о +9.6 +7.9 89 +9 +9 1004.6 995.0
17 16.08 СВ 3
{5}
н/о н/о +9.0 +7.9 93 +6 +6 1004.5 994.9 2
18 16.08 З 1
{7}
н/о н/о +9.1 +8.3 95 +8 +8 1004.5 994.9 +6.1 +10.8 2
19 16.08
{8}
н/о н/о +9.5 +8.3 92 1004.8 995.2 0.2
20 16.08 СВ 2
{5}
н/о н/о +9.3 +8.5 95 +7 +7 1004.8 995.2 3
21 16.08 штиль 0
{5}
н/о н/о +8.0 +7.4 96 +7 +7 1004.5 994.8
22 16.08 В 1
{4}
н/о н/о +8.4 +8.1 98 +7 +7 1004.6 995.0
23 16.08 В 1
{4}
н/о н/о +8.7 +8.4 98 +8 +8 1004.4 994.8
00 17.08 ЮВ 1
{8}
н/о н/о +8.5 +8.2 98 +8 +8 1004.6 995.0
01 17.08 СВ 2
{4}
н/о н/о +8.6 +8.5 99 +7 +7 1004.6 995.0
02 17.08 СВ 2
{4}
н/о н/о +8.6 +8.5 99 +7 +7 1004.7 995.1
03 17.08 ЮВ 2
{5}
н/о н/о +8.7 +8.6 99 +7 +7 1004.7 995.1
04 17.08 З 1
{2}
н/о н/о +8.8 +8.5 98 +8 +8 1004.9 995.3 0.6
05 17.08 С 1
{3}
н/о н/о +8.9 +8.6 98 +8 +8 1005.2 995.6 0.3
06 17.08 С 2
{6}
н/о н/о +9.1 +8.5 96 +7 +7 1005.5 995.8 +7.9 +9.7 4
07 17.08 З 3
{5}
н/о н/о +9.6 +8.2 91 +7 +7 1005.8 996.2
08 17.08 СЗ 1
{4}
н/о н/о +9.4 +7.9 90 +9 +9 1006.5 996.8
09 17.08 З 1
{3}
н/о н/о +10.7 +8.1 84 +10 +10 1006.7 997.1
10 17.08 СВ 3
{4}
н/о н/о +9.7 +8.6 93 +7 +7 1007.2 997.5
11 17.08 СВ 4
{6}
н/о н/о +10.1 +8.5 90 +7 +7 1007.3 997.7
12 17.08 СВ 5
{6}
н/о н/о +10.3 +8.4 88 +7 +7 1007.3 997.7
13 17.08 СВ 6
{8}
н/о н/о +10.9 +8.8 87 +8 +8 1007.1 997.5
14 17.08 СВ 7
{9}
н/о н/о +11.1 +9.2 88 +8 +8 1006.8 997.2
15 17.08 СВ 7
{9}
н/о н/о +10.6 +7.7 82 +7 +7 1006.5 996.9
16 17.08 СВ 7
{9}
н/о н/о +10.7 +8.3 85 +7 +7 1006.1 996.5
17 17.08 В 6
{8}
н/о н/о +11.5 +8.9 84 +9 +9 1005.6 996.0
18 17.08 В 6
{9}
н/о н/о +11.8 +8.8 82 +9 +9 1005.1 995.6 +9.1 +11.8
19 17.08 В 3
{8}
н/о н/о +13.6 +8.7 72 +13 +13 1004.4 994.9
20 17.08 В 2
{4}
н/о н/о +14.0 +9.0 72 +14 +14 1003.9 994.4
21 17.08 В 2
{6}
н/о н/о +15.1 +9.5 69 +15 +15 1003.4 993.9
22 17.08 Ю 3
{7}
н/о н/о +15.7 +10.7 72 +15 +15 1002.9 993.5
23 17.08 Ю 6
{10}
н/о н/о +16.5 +11.7 73 +15 +15 1002.4 993.0
00 18.08 Ю 4
{10}
н/о н/о +16.3 +12.3 77 +16 +16 1002.3 992.9
01 18.08 Ю 5
{11}
н/о н/о +15.6 +12.7 83 +14 +14 1001.9 992.5 0.4
02 18.08 Ю 5
{10}
н/о н/о +16.0 +12.2 78 +15 +15 1001.5 992.1 0.1
03 18.08 Ю 5
{10}
н/о н/о +16.5 +12.1 75 +16 +16 1000.7 991.4
04 18.08 Ю 6
{12}
н/о н/о +16.6 +12.0 74 +16 +16 999.9 990.6
05 18.08 Ю 7
{13}
н/о н/о +16.9 +11.8 72 +16 +16 999.4 990.1
06 18.08 Ю 8
{13}
н/о н/о +16.4 +11.1 71 +15 +15 999.5 990.2 +11.9 +16.9 0.5
07 18.08 Ю 9
{16}
н/о н/о +16.0 +10.8 71 +14 +14 999.3 990.0
08 18.08 Ю 9
{14}
н/о н/о +15.8 +10.4 70 +14 +14 999.7 990.4
09 18.08 Ю 8
{14}
н/о н/о +16.9 +10.5 66 +16 +16 1000.1 990.8
10 18.08 Ю 6
{13}
н/о н/о +16.8 +10.4 66 +16 +16 1000.4 991.1
11 18.08 Ю 6
{10}
н/о н/о +16.9 +11.0 68 +16 +16 1000.6 991.3
12 18.08 Ю 7
{16}
н/о н/о +18.2 +11.5 65 +18 +18 1001.1 991.8
13 18.08 Ю 5
{9}
н/о н/о +18.8 +11.6 63 +19 +19 1001.3 992.1
14 18.08 Ю 4
{9}
н/о н/о +18.7 +11.5 63 +19 +19 1001.7 992.4
15 18.08 Ю 5
{8}
н/о н/о +18.2 +11.3 64 +18 +18 1001.8 992.5
16 18.08 Ю 7
{10}
н/о н/о +18.3 +11.6 65 +18 +18 1001.8 992.5
17 18.08 Ю 4
{10}
н/о н/о +18.0 +11.8 67 +18 +18 1002.1 992.8
18 18.08 Ю 7
{10}
н/о н/о +17.4 +11.4 68 +16 +16 1002.4 993.1 +15.5 +19.2
19 18.08 Ю 7
{12}
н/о н/о +17.0 +11.7 71 +16 +16 1002.4 993.1
20 18.08 Ю 6
{12}
н/о н/о +16.8 +11.7 72 +16 +16 1002.3 993.0
21 18.08 Ю 7
{13}
н/о н/о +16.5 +11.9 74 +15 +15 1002.5 993.1
22 18.08 Ю 8
{15}
н/о н/о +16.7 +11.8 73 +15 +15 1002.3 992.9
23 18.08 Ю 7
{14}
н/о н/о +16.2 +11.8 75 +15 +15 1002.3 993.0
00 19.08 Ю 8
{15}
н/о н/о +16.1 +11.5 74 +14 +14 1002.1 992.8
01 19.08 Ю 8
{15}
н/о н/о +15.6 +11.2 75 +14 +14 1002.2 992.8
02 19.08 Ю 7
{15}
н/о н/о +15.5 +10.9 74 +14 +14 1001.9 992.6
03 19.08 Ю 7
{12}
н/о н/о +15.7 +11.9 78 +14 +14 1002.0 992.6
05 19.08 Ю 6
{12}
н/о н/о +16.7 +10.8 68 +16 +16 1002.4 993.1
06 19.08 Ю 5
{15}
н/о н/о +17.1 +11.4 69 +16 +16 1002.6 993.3 +14.8 +17.4
07 19.08 Ю 5
{9}
н/о н/о +17.3 +12.0 71 +17 +17 1002.4 993.1

 

Местоположение метеостанции Хаммерфест аэропорт (Норвегия): широта 70.68 долгота 23.38 высота над уровнем моря 81 м.

В архиве по умолчанию представлена погода в Хаммерфест аэропорту за последнюю неделю. Архивные данные за месяц целиком и за предыдущие месяцы, начиная с января 2011 года, Вы можете получить, выбрав интересующий диапазон дат из раскрывающегося списка и нажав кнопку "Ввод!".


*Определитесь, кто Вы:
робот инопланетянин человек

Внимание! Время в таблицах - всемирное. Для получения местного времени необходимо прибавить поправку, которая равна 1 ч.

Смотрите также архив погоды в соседних городах и на ближайших метеорологических станциях:

Погода на Хасвике (Норвегия) (36 км)
Погода в Рогнсундете (Норвегия) (37 км)
Погода в Хасвик аэропорту (Норвегия) (50 км)
Погода на Маяке Fruholmen (Норвегия) (51 км)
Погода в Альта аэропорту (Норвегия) (78 км)
Погода в Банаке (Норвегия) (92 км)
Погода в Хоннигсвог аэропорту (Норвегия) (102 км)
Погода в Суоловуопми-Лулит (Норвегия) (122 км)
Погода в Сёрхьюсен аэропорту (Норвегия) (134 км)
Погода в Карасйоке (Норвегия) (148 км)

Пояснения к столбцам:

Ветер - указаны скорость ветра в м/с - средняя за 10 мин, порывы в срок и между сроками (в фигурных скобках) и направление, откуда дует ветер: С - северный, СВ - северо-восточный, В - восточный, ЮВ - юго-восточный, Ю - южный, ЮЗ - юго-западный, З - западный, СЗ - северо-западный.
Видимость - горизонтальная дальность видимости в метрах или километрах. При видимости от 1 до 10 км при отсутствии осадков обычно наблюдается дымка, при ухудшении видимости до 1 км и менее - туман. В сухую погоду видимость может ухудшаться дымом, пылью или мглою.
Явления - указаны атмосферные явления, наблюдавшиеся в срок или в последний час перед сроком; фигурными скобками обозначены явления, наблюдавшиеся между сроками (за 1-3 часа до срока); квадратными скобками обозначены град или гололедные отложения с указанием их диаметра в мм.
Облачность - указаны через наклонную черту общая и нижняя облачность в баллах и высота нижней границы облаков в метрах; квадратными скобками обозначены формы облаков: Ci - перистые, Cs - перисто-слоистые, Cc - перисто-кучевые, Ac - высококучевые, As - высокослоистые, Sc - слоисто-кучевые, Ns - слоисто-дождевые, Cu - кучевые, Cb - кучево-дождевые. Подробнее классификацию облаков см. в Атласе облаков (PDF).
T - Температура воздуха - температура, измеренная на высоте 2 м над землей.
Td - Температура точки росы - температура, при понижении до которой содержащийся в воздухе водяной пар достигнет насыщения.
f - Относительная влажность воздуха - влажноcть воздуха, измеренная на высоте 2 м над землей.
Te - Эффективная температура - температура, которую ощущает одетый по сезону человек в тени. Характеристика душности погоды. При расчете учитывается влияние влажности воздуха и скорости ветра на теплоощущения человека.
Tes - Эффективная температура на солнце - температура, которую ощущает человек, с поправкой на солнечный нагрев. Характеристика знойности погоды. Зависит от высоты солнца над горизонтом, облачности и скорости ветра. Ночью, в пасмурную погоду, а также при ветре 12 м/с и более поправка равна нулю.
P - Атмосферное давление - приведенное к уровню моря атмосферное давление.
Po - Атмосферное давление - измеренное на уровне метеостанции атмосферное давление.
Tmin - Минимальная температура - минимум температуры воздуха на высоте 2 м над землей.
Tmax - Максимальная температура - максимум температуры воздуха на высоте 2 м над землей.
R - Количество осадков - Количество выпавших осадков за период времени, мм. При наведении курсора мыши на число - период времени, за который выпало указанное количество осадков.
R24 - Количество осадков - Количество выпавших осадков за 24 часа, мм.
S - Снежный покров - Высота снежного покрова, см. При наведении курсора мыши на число - состояние снежного покрова и степень покрытия местности в баллах.